Flag Weather past 2 weeks in Yorkton, Saskatchewan, Canada

Now
5 °F

Light snow. Overcast.


Feels Like: -7 °F
Forecast: 6 / 10 °F
Wind: 7 mph from Northeast

Location: Yorkton

Current Time: Nov 28, 2014 at 5:36:46 AM

Latest Report: Nov 28, 2014 at 5:00 AM


Visibility: 3 mi

Pressure: 30.06 "Hg

Humidity: 92%

Dew point: 3 °F

Location of YorktonLocation

Historic Weather in Yorkton — Graph

°F

Yorkton temperature yesterday

Maximum temperature yesterday: 7 °F (at 3:00 PM)
Minimum temperature yesterday: -15 °F (at 12:00 AM)
Average temperature yesterday: 0 °F

Past Weeks' High & Low Weather Summary

 TemperatureHumidityPressure
High39 °F (Nov 21, 1:59 PM)100% (Nov 21, 11:00 PM)30.68 "Hg (Nov 21, 11:00 PM)
Low-15 °F (Nov 26, 11:00 PM)45% (Nov 19, 2:00 PM)29.33 "Hg (Nov 22, 9:00 PM)
Average11 °F80%30.07 "Hg
* Reported Nov 13 4:00 AM — Nov 28 4:02 AM, Yorkton, Weather by CustomWeather, © 2014

Note: Actual official high and low records may vary slightly from our data, if they occured in-between our weather recording intervals... More about our weather records

Advertising

Yorkton weather history for previous 24 hours

 ConditionsComfort  
Time TempWeatherWind HumidityBarometerVisibility
4:02 AM
Nov 28
7 °FLight snow. Overcast.10 mph85%30.07 "Hg2 mi
3:00 AM9 °FLight snow. Overcast.8 mph92%30.10 "Hg6 mi
2:56 AM9 °FLight snow. Overcast.9 mph85%30.10 "Hg6 mi
2:00 AM9 °FLight snow. Overcast.9 mph85%30.11 "Hg5 mi
1:54 AM9 °FLight snow. Overcast.8 mph85%30.11 "Hg3 mi
1:00 AM7 °FLight snow. Overcast.8 mph92%30.12 "Hg4 mi
12:00 AM7 °FMostly cloudy.10 mph85%30.13 "Hg9 mi
11:54 PM
Nov 27
7 °FMostly cloudy.9 mph85%30.14 "Hg9 mi
11:00 PM7 °FOvercast.5 mph92%30.15 "Hg9 mi
10:00 PM7 °FOvercast.6 mph85%30.15 "Hg9 mi
9:00 PM7 °FOvercast.8 mph85%30.16 "Hg9 mi
8:00 PM7 °FOvercast.6 mph85%30.18 "Hg9 mi
7:00 PM7 °FOvercast.7 mph85%30.19 "Hg9 mi
6:00 PM7 °FOvercast.7 mph85%30.20 "Hg9 mi
5:00 PM7 °FOvercast.7 mph85%30.20 "Hg9 mi
4:00 PM5 °FPartly sunny.7 mph85%30.22 "Hg9 mi
3:00 PM7 °FPartly sunny.8 mph78%30.24 "Hg9 mi
2:00 PM5 °FOvercast.10 mph85%30.24 "Hg9 mi
1:00 PM5 °FOvercast.9 mph85%30.27 "Hg9 mi
12:00 PM3 °FOvercast.8 mph92%30.30 "Hg9 mi
11:59 AM3 °FOvercast.8 mph92%30.30 "Hg9 mi
11:00 AM3 °FLight snow. Overcast.8 mph85%30.32 "Hg9 mi
10:00 AM1 °FLight snow. Overcast.9 mph92%30.33 "Hg9 mi
9:00 AM0 °FLight snow. Mostly cloudy.9 mph84%30.35 "Hg9 mi
8:00 AM-2 °FLight snow. Overcast.7 mph84%30.35 "Hg9 mi
7:57 AM-2 °FLight snow. Overcast.8 mph84%30.35 "Hg9 mi
7:00 AM-4 °FLow clouds.6 mph84%30.37 "Hg9 mi
6:00 AM-4 °FLow clouds.5 mph84%30.40 "Hg9 mi
5:00 AM-6 °FLight snow. Low clouds.6 mph84%30.42 "Hg9 mi
Weather by CustomWeather, © 2014

See weather overviewHow to use our weather pages